ベルナルディ彗星

268P/Bernardi (2024)

English version
Home page
Updated on March 26, 2025

---------------------------------------------------------------------

・ プロフィール

・ 写真集

・ 軌道要素

Epoch 2025 May 5.0 TT = JDT 2460800.5
T 2024 Dec. 18.48437 TT                                 Pike
q   2.4126827            (2000.0)            P               Q
n   0.10018956     Peri.    0.01771     -0.58282493     -0.78241585
a   4.5911455      Node   125.63243     +0.74551066     -0.62227649
e   0.4744922      Incl.   15.66144     +0.32330937     +0.02444192
P   9.84
From 193 observations 2004 Sept. 22-2025 Feb. 27, mean residual 0".4.
     Nongravitational parameters A1 = +3.93, A2 = -0.8580.

・ 光度変化

        m1 = 15.0 + 5 logΔ + 7.5 log r

---------------------------------------------------------------------

軌道要素はM.P.E.C. 2025-D254に掲載されたものです。
光度グラフはComet for Windowsで作成したものです。

---------------------------------------------------------------------

Copyright(C) Seiichi Yoshida (comet@aerith.net). All rights reserved.